Wind_Speed
108 103 97 89 83 79 76 74 72 71 71 68 63 62 61 59 56 51 47 45 46 52 54 53 53 55 58 61 64 68 74 82 92 102 106 106 108 113 116 116 116 115
108 103 96 89 83 79 76 74 73 71 70 67 63 61 59 57 54 49 45 43 45 51 52 50 51 54 56 60 63 67 73 81 91 100 104 104 107 111 114 115 115 115
108 102 95 88 83 79 75 72 72 72 70 65 62 60 57 54 51 47 43 41 44 49 50 49 50 53 55 59 63 67 73 80 89 98 102 102 104 107 111 114 115 114
107 102 94 88 83 79 75 72 71 71 70 65 62 59 54 51 49 45 42 40 43 49 49 49 50 52 55 59 63 67 72 78 86 96 101 100 100 105 110 114 115 116
106 102 95 87 83 80 76 73 72 71 68 65 62 58 53 49 47 43 40 38 42 48 49 49 50 52 55 58 62 66 71 77 84 91 98 99 99 104 111 115 117 118
107 102 95 88 83 81 77 73 72 71 67 63 61 58 52 48 44 41 39 37 41 48 49 49 50 52 56 58 61 65 69 76 82 87 94 97 99 104 112 116 119 121
107 102 96 89 84 81 78 74 72 72 67 62 60 56 51 47 42 39 38 36 41 47 48 48 50 52 56 59 61 65 69 75 80 84 90 96 100 106 112 117 120 123
108 102 96 89 84 80 77 74 72 72 68 62 59 55 49 45 40 37 37 36 40 47 48 48 50 52 55 58 61 65 69 74 79 82 88 96 102 107 112 116 119 122
109 103 96 90 85 81 77 72 71 71 67 61 58 55 49 44 38 36 37 36 40 46 47 47 49 51 55 58 61 65 69 74 78 81 87 97 104 108 110 114 117 120
109 104 97 91 85 81 76 71 70 70 67 61 57 53 48 43 37 35 36 36 40 45 46 46 49 51 55 58 61 64 69 73 78 81 87 97 104 107 109 112 115 118
110 104 98 91 85 80 75 70 68 68 66 60 56 52 47 41 36 34 36 36 39 44 45 46 49 51 55 58 61 64 68 73 78 82 89 97 104 107 109 111 114 117
109 104 97 90 83 79 74 69 67 67 63 58 55 51 45 40 35 33 36 37 39 43 44 46 48 50 54 58 61 64 68 73 79 84 90 97 102 106 109 112 115 117
109 103 96 89 82 78 74 69 66 65 62 56 53 49 44 39 34 33 36 37 39 42 44 45 48 50 54 57 60 64 68 73 79 85 90 96 100 104 109 112 115 117
108 102 95 88 82 78 73 67 64 63 59 54 52 48 42 37 34 33 35 37 38 42 44 45 47 50 54 58 61 64 68 73 79 85 90 94 98 102 108 112 116 117
107 101 94 88 81 77 72 66 63 61 57 52 50 47 41 36 34 32 35 37 38 41 44 45 47 50 54 58 61 64 67 72 78 83 88 93 96 100 106 111 114 116
105 99 93 87 81 76 70 64 61 60 55 50 48 46 41 36 33 32 34 36 37 40 44 46 47 49 53 58 61 64 67 71 76 81 87 91 94 98 104 108 112 114
103 97 91 86 80 75 69 63 59 58 54 48 46 45 40 36 33 32 34 36 37 39 43 46 47 48 51 56 61 63 66 70 75 80 85 89 92 97 102 106 109 112
100 94 90 84 79 74 68 62 58 56 53 47 44 43 39 35 33 32 33 35 36 38 43 46 47 47 49 54 59 63 65 69 73 78 84 88 91 95 100 103 107 110
98 92 88 83 78 72 67 61 58 55 51 45 42 42 39 35 33 32 32 35 35 37 41 46 47 47 48 52 57 61 64 68 72 76 82 86 90 93 97 101 106 110
96 91 86 81 76 71 65 60 57 54 50 44 40 40 38 34 32 31 32 34 35 36 40 44 46 46 47 50 54 59 63 66 70 75 80 84 88 91 95 101 107 111
95 90 85 80 75 70 63 59 56 53 49 43 38 38 38 35 32 31 31 33 34 35 38 43 45 45 47 48 51 56 61 65 69 73 78 82 86 90 95 102 108 111
94 88 83 79 74 68 62 57 55 52 49 43 38 36 37 35 31 30 31 32 33 34 37 41 43 44 47 48 49 53 59 64 68 72 76 80 85 90 96 102 107 109
93 86 81 77 73 67 61 56 54 52 48 42 37 35 36 35 31 29 31 32 33 34 36 39 41 43 47 48 48 51 57 64 69 72 75 78 83 89 96 101 104 108
92 84 78 74 71 66 60 55 53 52 47 42 37 34 34 35 32 29 30 32 33 33 35 37 40 42 45 48 48 51 57 64 69 72 74 77 82 89 95 99 102 106
90 83 77 72 68 65 60 54 52 52 47 41 38 34 33 34 32 29 30 31 32 33 35 37 38 41 45 48 50 53 58 64 68 70 73 76 81 88 94 98 101 104
89 82 75 70 66 63 59 53 50 50 47 41 38 35 33 34 32 29 29 31 32 33 35 37 38 40 44 49 52 55 59 63 66 70 72 75 80 86 93 98 102 103
Wind_Direction
334 332 328 325 324 322 320 318 315 311 308 306 304 300 297 294 292 287 280 271 262 258 255 251 245 238 233 229 225 221 217 214 213 210 208 208 207 207 207 208 209 210
335 332 328 326 325 324 322 319 316 312 309 307 305 302 299 295 291 286 278 269 261 256 254 250 244 238 233 229 224 220 215 213 212 211 209 209 208 207 207 208 209 209
335 332 329 327 326 325 323 320 317 313 310 309 306 303 300 295 290 285 276 267 259 255 252 247 241 236 232 228 224 219 214 211 211 211 210 210 209 208 207 208 208 208
336 333 330 328 327 326 324 321 317 314 311 310 307 304 301 296 290 284 275 265 258 254 251 245 239 234 230 227 223 218 213 211 210 209 210 210 209 208 208 208 207 207
336 333 330 329 328 327 325 322 318 314 312 311 308 305 302 296 290 283 274 263 256 253 249 243 237 232 229 226 222 218 213 210 210 209 208 209 209 209 209 208 207 207
337 333 331 330 329 328 326 323 319 314 312 311 308 306 303 296 290 283 274 262 254 251 248 242 236 231 228 225 221 218 213 210 210 209 207 207 208 209 210 209 207 207
337 334 331 330 330 329 326 323 319 315 313 312 308 306 302 297 291 283 273 262 252 250 246 240 235 230 227 224 220 216 213 211 210 209 207 206 207 209 211 211 209 207
337 334 331 330 330 329 327 324 320 315 313 312 309 305 302 297 292 284 273 261 251 249 245 239 234 229 226 224 219 216 213 211 209 208 207 205 206 208 211 212 211 209
337 334 332 330 330 330 328 324 319 314 312 312 309 305 302 297 292 283 272 260 251 248 245 238 233 229 225 223 219 215 213 211 209 207 206 206 206 208 210 212 212 211
337 334 332 330 330 329 328 324 319 314 312 312 308 305 302 297 292 282 270 259 250 247 243 237 232 227 224 222 219 216 213 211 209 206 206 207 208 208 209 211 212 212
337 334 332 330 329 329 327 324 319 314 312 312 308 305 301 297 292 281 269 259 251 247 242 236 231 226 223 221 218 215 212 210 209 206 206 207 209 209 209 210 211 212
336 333 331 329 329 329 327 324 319 314 312 311 308 304 301 297 291 280 268 258 250 246 241 235 230 226 223 221 218 214 212 210 209 207 206 208 209 209 209 210 211 212
335 333 331 329 329 329 327 324 319 313 311 310 307 303 301 297 291 279 267 258 251 246 241 235 230 225 222 220 218 214 212 211 209 208 207 208 209 209 210 210 211 211
335 332 330 329 329 329 327 323 318 313 311 310 306 302 301 297 290 278 266 258 251 246 241 235 229 224 220 219 218 215 212 211 210 209 209 209 210 210 210 210 211 211
334 332 330 329 329 328 326 322 318 313 311 309 305 302 300 297 290 279 266 259 252 246 242 237 231 224 220 218 217 215 213 212 211 210 209 210 210 210 210 211 211 212
333 331 329 328 328 328 325 322 318 313 310 309 304 301 300 297 290 279 266 259 252 246 242 238 233 226 220 217 216 215 213 212 212 211 210 210 210 210 210 211 211 212
332 331 329 328 328 327 324 321 318 313 310 309 304 300 299 296 290 278 267 259 252 246 242 238 234 228 220 216 215 215 213 212 212 212 211 211 210 209 210 210 211 212
332 330 329 328 327 327 324 321 318 313 311 309 304 300 298 296 289 278 267 259 252 245 241 239 236 230 222 217 215 214 213 212 212 212 212 212 210 210 210 210 210 212
331 330 329 328 327 326 324 321 317 313 311 309 304 300 298 295 289 278 267 258 251 244 240 238 236 232 224 218 215 214 213 212 212 212 212 212 211 210 210 209 210 211
331 330 329 328 327 326 323 320 317 313 311 309 305 300 297 295 288 278 266 258 250 243 238 236 235 233 227 220 215 214 213 212 211 211 212 212 212 211 209 209 210 211
330 329 328 327 327 325 323 320 317 313 311 309 305 300 297 293 287 277 266 257 249 242 236 234 234 233 230 223 216 213 212 212 211 211 212 212 212 211 209 209 210 211
329 328 328 327 327 325 322 320 317 314 311 308 305 300 296 292 286 276 265 256 248 240 234 231 231 231 231 226 218 212 211 211 211 212 212 212 212 210 210 209 211 211
328 328 327 327 326 325 322 320 318 314 311 308 304 300 296 291 284 274 264 254 246 240 233 229 227 228 230 228 220 212 209 209 210 211 212 212 212 211 210 211 211 211
327 327 327 327 326 325 322 320 318 314 311 308 304 300 295 289 283 273 262 253 245 239 233 228 225 225 227 228 222 213 209 209 210 211 211 211 211 211 211 212 212 211
327 326 326 326 327 325 322 320 319 314 311 308 304 300 294 288 282 272 261 252 244 238 233 228 224 223 224 224 221 215 211 210 210 210 210 210 210 210 211 212 212 212
326 325 325 326 327 325 322 320 318 314 311 309 305 300 294 287 280 271 260 251 243 238 234 229 225 222 221 222 220 216 213 211 209 209 209 210 210 210 210 211 213 213
Height
10277 10265 10256 10248 10240 10231 10224 10217 10211 10205 10197 10190 10187 10182 10177 10172 10170 10169 10170 10169 10167 10165 10163 10165 10168 10171 10175 10180 10185 10192 10199 10205 10213 10221 10230 10240 10249 10257 10269 10280 10292 10305
10267 10256 10245 10237 10230 10222 10213 10205 10198 10193 10187 10180 10175 10172 10168 10163 10160 10160 10160 10160 10158 10155 10154 10156 10159 10162 10166 10171 10176 10183 10190 10196 10204 10214 10223 10232 10240 10250 10262 10271 10282 10295
10258 10247 10236 10227 10219 10212 10205 10197 10189 10182 10176 10171 10166 10162 10159 10155 10151 10150 10150 10150 10148 10145 10145 10147 10149 10152 10156 10162 10167 10173 10180 10187 10195 10205 10215 10224 10233 10244 10254 10261 10272 10284
10250 10238 10228 10218 10209 10202 10195 10189 10181 10173 10166 10161 10156 10152 10150 10146 10143 10141 10141 10141 10139 10137 10137 10138 10140 10143 10147 10152 10158 10165 10172 10179 10186 10196 10206 10217 10227 10237 10244 10251 10262 10273
10241 10228 10218 10210 10201 10193 10186 10179 10172 10165 10158 10152 10147 10143 10141 10138 10135 10133 10132 10133 10131 10128 10128 10129 10132 10135 10138 10143 10150 10157 10165 10172 10179 10187 10198 10208 10218 10227 10233 10241 10252 10261
10232 10218 10208 10200 10192 10183 10176 10170 10162 10155 10150 10144 10138 10135 10133 10130 10127 10125 10124 10124 10123 10120 10119 10121 10124 10127 10130 10135 10143 10150 10158 10165 10171 10180 10190 10199 10208 10216 10223 10232 10242 10250
10222 10209 10199 10190 10183 10175 10166 10160 10153 10145 10141 10137 10130 10127 10125 10122 10119 10117 10116 10116 10115 10112 10112 10113 10117 10120 10123 10128 10135 10143 10151 10157 10164 10174 10183 10190 10197 10205 10213 10223 10232 10240
10212 10200 10189 10181 10174 10167 10158 10151 10144 10136 10131 10128 10123 10118 10116 10114 10111 10109 10108 10108 10107 10105 10105 10106 10110 10113 10116 10121 10128 10135 10143 10150 10157 10166 10176 10182 10187 10195 10204 10214 10224 10233
10202 10190 10180 10171 10164 10158 10151 10144 10136 10128 10122 10119 10114 10110 10108 10106 10103 10101 10100 10100 10100 10098 10098 10100 10103 10107 10111 10115 10121 10128 10135 10143 10150 10159 10168 10174 10178 10186 10196 10206 10216 10227
10191 10180 10170 10162 10155 10148 10142 10135 10128 10120 10114 10111 10106 10102 10099 10098 10096 10094 10092 10093 10092 10091 10092 10093 10096 10100 10104 10108 10114 10121 10129 10137 10144 10152 10159 10165 10170 10178 10188 10198 10208 10219
10182 10172 10162 10154 10147 10140 10133 10127 10120 10112 10106 10102 10098 10094 10091 10090 10088 10087 10085 10085 10085 10085 10086 10087 10090 10094 10097 10101 10107 10114 10122 10129 10137 10144 10150 10156 10163 10171 10180 10189 10199 10210
10175 10164 10155 10147 10140 10133 10126 10119 10112 10104 10099 10095 10090 10087 10084 10082 10081 10080 10079 10078 10078 10079 10080 10081 10084 10088 10092 10095 10101 10107 10115 10122 10129 10136 10142 10147 10155 10165 10173 10181 10191 10200
10167 10156 10146 10138 10131 10124 10118 10112 10104 10097 10092 10088 10083 10080 10077 10075 10074 10073 10072 10072 10072 10072 10074 10075 10078 10082 10086 10090 10095 10101 10108 10114 10122 10129 10134 10139 10148 10157 10166 10174 10182 10192
10158 10147 10138 10129 10123 10116 10110 10104 10097 10090 10085 10080 10076 10072 10070 10068 10067 10067 10066 10065 10066 10066 10068 10070 10072 10075 10079 10083 10088 10094 10101 10107 10115 10123 10128 10134 10141 10150 10159 10167 10175 10184
10151 10140 10130 10122 10115 10108 10103 10097 10090 10082 10078 10073 10069 10065 10063 10062 10060 10060 10059 10059 10060 10061 10062 10065 10067 10069 10073 10077 10082 10088 10094 10101 10109 10117 10123 10129 10136 10144 10152 10160 10169 10179
10144 10133 10123 10114 10107 10101 10095 10090 10082 10075 10070 10066 10062 10058 10056 10055 10054 10054 10053 10053 10054 10055 10056 10059 10061 10064 10067 10071 10076 10081 10088 10095 10103 10111 10117 10122 10130 10138 10145 10154 10163 10173
10137 10126 10115 10106 10099 10092 10086 10081 10074 10068 10063 10059 10056 10052 10049 10048 10048 10047 10047 10047 10048 10049 10050 10052 10055 10058 10062 10066 10071 10076 10083 10089 10096 10105 10111 10117 10124 10132 10140 10149 10159 10168
10129 10119 10109 10099 10091 10084 10078 10073 10067 10061 10056 10052 10049 10045 10043 10042 10041 10041 10041 10041 10042 10043 10044 10045 10048 10053 10058 10062 10066 10071 10077 10084 10091 10099 10107 10113 10119 10126 10134 10144 10154 10163
10120 10111 10101 10092 10084 10076 10071 10065 10059 10054 10049 10046 10043 10039 10036 10035 10035 10035 10035 10035 10036 10037 10038 10039 10041 10047 10053 10058 10062 10066 10072 10079 10086 10094 10102 10108 10115 10121 10129 10139 10148 10157
10111 10102 10093 10085 10077 10069 10063 10058 10052 10046 10042 10039 10037 10033 10030 10029 10029 10029 10029 10029 10030 10032 10033 10034 10035 10040 10047 10053 10058 10062 10067 10074 10081 10089 10096 10104 10111 10118 10125 10134 10142 10151
10102 10093 10085 10077 10069 10061 10056 10051 10045 10039 10035 10032 10030 10027 10024 10022 10022 10023 10023 10024 10025 10026 10028 10029 10031 10035 10040 10047 10053 10058 10063 10070 10077 10084 10091 10099 10107 10115 10122 10129 10137 10145
10093 10086 10078 10070 10062 10054 10049 10044 10037 10032 10028 10025 10023 10021 10018 10016 10017 10017 10017 10018 10019 10020 10022 10025 10027 10030 10034 10039 10047 10054 10060 10066 10072 10078 10086 10093 10102 10111 10118 10125 10132 10141
10083 10078 10071 10063 10055 10047 10041 10036 10030 10025 10021 10019 10016 10014 10012 10010 10011 10011 10011 10012 10013 10014 10017 10020 10023 10025 10027 10032 10040 10048 10054 10059 10064 10072 10079 10087 10096 10105 10113 10120 10128 10137
10075 10069 10064 10057 10048 10040 10033 10029 10023 10017 10014 10012 10010 10008 10006 10004 10005 10006 10006 10006 10007 10009 10011 10014 10018 10021 10023 10027 10033 10041 10046 10051 10057 10064 10072 10080 10089 10099 10107 10115 10123 10132
10066 10060 10055 10049 10041 10032 10025 10022 10017 10010 10006 10005 10003 10002 10000 9999 9999 10000 10001 10001 10002 10004 10005 10007 10011 10015 10019 10022 10027 10033 10038 10043 10049 10058 10066 10074 10082 10092 10101 10110 10118 10127
10056 10051 10046 10041 10034 10026 10018 10015 10011 10004 10000 9998 9996 9995 9994 9993 9993 9994 9995 9996 9997 9998 10000 10002 10005 10009 10013 10017 10021 10026 10031 10036 10043 10051 10059 10067 10075 10085 10095 10104 10113 10122